Location: Hohe Wand Kleine Kanzel
(47.8330°N, 16.0170°E)
Time: 17:05:06
(UTC+02:00)

Courier 1B Rocket - Pass Details

Date: 08 August 2021
Orbit: 920 x 1202 km, 28.3° (Epoch: 23 September)

Event Time Altitude Azimuth Distance (km) Brightness Sun altitude
Rises 23:56:59 0° 218° (SW) 4,011 - -24.4°
Reaches altitude 10° 00:01:54 10° 191° (S) 2,992 - -24.6°
Maximum altitude 00:04:40 12° 169° (SSE) 2,775 - -24.8°
Drops below altitude 10° 00:07:23 10° 146° (SE) 2,915 - -24.9°
Sets 00:12:00 0° 119° (ESE) 3,799 - -25.1°
